Hourly Weather Roundup
Issued by NWS

Current Version | Previous Version | Text Only | Print | Product List | Glossary On
Versions: 1 2 3 4 5 6 7 8 9 10 11 12 13 14 15 16 17 18 19 20 21 22 23 24 25 26 27 28 29 30 31 32 33 34 35 36 37 38 39 40 41 42 43 44 45 46 47 48 49 50
000
NZUS43 KILX 041910
HWRCRS

CRS HOURLY WEATHER ROUNDUP
NATIONAL WEATHER SERVICE, LINCOLN IL
200 PM CDT SAT JUL 04 2015


CITY           SKY/WX    TMP DP  RH WIND       PRES   REMARKS
CHAMPAIGN      PTSUNNY   77  60  55 SW5       30.03F
LAWRENCEVILLE  PTSUNNY   80  65  59 NW6       30.01F HX  82
PEORIA         MOSUNNY   80  60  50 S7        30.02F HX  81
SPRINGFIELD    MOSUNNY   81  62  52 W3        30.03S HX  82
$$


CITY           SKY/WX    TMP DP  RH WIND       PRES   REMARKS
BLOOMINGTON    MOSUNNY   79  60  51 CALM      30.04F HX  80
DECATUR        MOSUNNY   78  60  53 E5        30.03S
EFFINGHAM      MOSUNNY   78  57  47 CALM      30.03S
FLORA          MOSUNNY   77  62  59 CALM      30.02F
GALESBURG      PTSUNNY   78  62  57 SW7       30.03S HX  80
JACKSONVILLE   MOSUNNY   81  65  58 CALM      30.02F HX  82
LACON          SUNNY     78  58  50 S6        30.01F
LINCOLN        PTSUNNY   80  59  48 CALM      30.02S HX  80
LITCHFIELD     PTSUNNY   78  60  53 W3        30.02F

CITY           SKY/WX    TMP DP  RH WIND       PRES   REMARKS
MACOMB         PTSUNNY   78  60  54 CALM      30.04F
MATTOON        PTSUNNY   76  61  59 CALM      30.02S
MOLINE         SUNNY     79  59  50 SW6       30.01S HX  80
OLNEY          MOSUNNY   79  64  61 CALM      30.02S HX  81
PARIS          MOSUNNY   78  62  57 CALM      30.03F HX  80
PONTIAC        SUNNY     79  65  61 W5        30.03S HX  81
QUINCY         SUNNY     80  59  48 S7        30.02S HX  81
RANTOUL        MOSUNNY   80  62  53 W5        30.02F HX  81
ROBINSON       MOSUNNY   79  63  58 CALM      30.02S HX  80
TAYLORVILLE    SUNNY     77  61  57 CALM      30.02F
TERRE HAUTE    MOSUNNY   80  61  52 CALM      30.01F HX  81
$$


CITY           SKY/WX    TMP DP  RH WIND       PRES   REMARKS
BURLINGTON     SUNNY     79  62  56 SW6       30.01F HX  80
CHICAGO        MOSUNNY   80  56  43 CALM      30.00S HX  80
DES MOINES     MOSUNNY   81  57  43 S8        29.99F HX  81
EVANSVILLE     PTSUNNY   81  65  58 NE5       30.00F HX  83
INDIANAPOLIS   MOSUNNY   77  57  50 CALM      30.00F
KANSAS CITY    PTSUNNY   79  62  56 S6        30.01F HX  80
MILWAUKEE      MOSUNNY   79  60  52 SE10      29.99S HX  80
ST LOUIS       MOSUNNY   83  60  45 N3        30.01F HX  83
$$




USA.gov is the U.S. government's official web portal to all federal, state and local government web resources and services.